Location: Sears
(37.7625°N, 100.1060°W)
Time: 12:14:35
(UTC+00:00)

Envisat - Pass Details

Date: 05 August 2021
Orbit: 764 x 766 km, 98.2° (Epoch: 22 September)

Event Time Altitude Azimuth Distance (km) Brightness Sun altitude
Rises 10:38:20 0° 34° (NE) 3,237 7.6 -12.9°
Reaches altitude 10° 10:41:47 10° 59° (ENE) 2,305 7.0 -12.4°
Maximum altitude 10:44:27 14° 91° (E) 2,018 6.0 -11.9°
Drops below altitude 10° 10:47:07 10° 123° (ESE) 2,296 5.8 -11.5°
Sets 10:50:32 0° 148° (SSE) 3,216 6.2 -10.9°
